Flag for United Kingdom Weather past 2 weeks in Market Harborough, England, United Kingdom

Now
56 °F

Cool.


Feels Like: 52 °F
Forecast: 45 / 65 °F
Wind: 14 mph from West

Location: Church Lawford

Current Time: Aug 23, 2014 at 5:31:09 PM

Latest Report: Aug 23, 2014 at 4:00 PM


Visibility: 28 mi

Pressure: 29.99 "Hg

Humidity: 65%

Dew point: 44 °F

Location of Market HarboroughLocation

Historic Weather in Market Harborough — Graph

°F

Market Harborough temperature yesterday

Maximum temperature yesterday: 64 °F (at 4:00 PM)
Minimum temperature yesterday: 51 °F (at 11:00 PM)
Average temperature yesterday: 56 °F

Past Weeks' High & Low Weather Summary

 TemperatureHumidityPressure
High74 °F (Aug 8, 4:00 PM)100% (Aug 10, 12:00 PM)30.16 "Hg (Aug 10, 12:00 PM)
Low44 °F (Aug 20, 5:00 AM)41% (Aug 17, 4:00 PM)29.26 "Hg (Aug 10, 12:00 PM)
Average57 °F75%29.82 "Hg
* Reported Aug 8 4:00 PM — Aug 23 4:00 PM, Market Harborough, Weather by CustomWeather, © 2014

Note: Actual official high and low records may vary slightly from our data, if they occured in-between our weather recording intervals... More about our weather records

Advertising

Market Harborough weather history for previous 24 hours

 ConditionsComfort  
Time TempWeatherWind HumidityBarometerVisibility
4:00 PM
Aug 23
56 °FCool.14 mph65%29.99 "Hg28 mi
3:00 PM57 °FCool.7 mph66%29.99 "Hg28 mi
2:00 PM63 °FMild.10 mph49%29.97 "Hg19 mi
1:00 PM57 °FCool.15 mph64%29.98 "Hg22 mi
12:00 PM60 °FRefreshingly cool.10 mph55%29.96 "Hg13 mi
11:00 AM59 °FSmoke.13 mph56%29.97 "Hg15 mi
10:00 AM58 °FCool.10 mph62%29.96 "Hg25 mi
9:00 AM53 °FCool.8 mph78%29.96 "Hg22 mi
8:00 AM50 °FCool.6 mph85%29.96 "Hg28 mi
7:00 AM47 °FCool.5 mph90%29.95 "Hg22 mi
6:00 AM47 °FCool.3 mph90%29.94 "Hg19 mi
5:00 AM45 °FCool.3 mph93%29.94 "Hg19 mi
4:00 AM45 °FCool.3 mph92%29.94 "Hg14 mi
3:00 AM46 °FCool.3 mph87%29.94 "Hg25 mi
2:00 AM47 °FCool.3 mph86%29.95 "Hg25 mi
1:00 AM48 °FCool.3 mph81%29.95 "Hg28 mi
12:00 AM50 °FCool.5 mph78%29.95 "Hg25 mi
11:00 PM
Aug 22
51 °FCool.7 mph74%29.95 "Hg25 mi
10:00 PM52 °FCool.5 mph74%29.94 "Hg25 mi
9:00 PM55 °FCool.7 mph67%29.92 "Hg31 mi
7:00 PM58 °FRefreshingly cool.9 mph60%29.89 "Hg25 mi
5:00 PM60 °FCool.10 mph61%29.88 "Hg25 mi
Weather by CustomWeather, © 2014

See weather overviewHow to use our weather pages